Weather History for Mombasa, Kenya

Change the Weather History Date:

Wednesday, March 27, 2013

  Actual Average Record
Temperature  
Mean Temperature 84 °F -  
Max Temperature 91 °F 90 °F 93 °F (2005)
Min Temperature 78 °F 73 °F 74 °F (2014)
Cooling Degree Days 20    
Growing Degree Days 34 (Base 50)    
Moisture  
Dew Point 75 °F    
Average Humidity 74    
Maximum Humidity 89    
Minimum Humidity 51    
Precipitation  
Precipitation 0.02 in 0.19 in - ()
Sea Level Pressure  
Sea Level Pressure 29.84 in    
Wind  
Wind Speed 8 mph ()    
Max Wind Speed 16 mph    
Max Gust Speed -    
Visibility 8.3 miles    
Events      
Averages and records for this station are not official NWS values.
T = Trace of Precipitation, MM = Missing Value Source: Averaged Metar Reports

Daily Weather History Graph

Daily Weather History Graph

Search for Another Location

Airport:

Trip Planner

Search our weather history database for the weather conditions in past years. The results will help you decide how hot, cold, wet, or windy it might be!

Date:

Astronomy

Mar. 27, 2013 Rise Set
Actual Time 6:24 AM EAT 6:29 PM EAT
Civil Twilight 6:03 AM EAT 6:50 PM EAT
Nautical Twilight 5:39 AM EAT 7:14 PM EAT
Astronomical Twilight 5:15 AM EAT 7:38 PM EAT
Moon 6:32 PM EAT (3/27) 6:09 AM EAT (3/27)
Length of Visible Light 12h 46m
Length of Day
12h 05m
Full, 100% of the Moon is Illuminated
Mar 27
Full
Mar 27
Full
Apr 3
Last Quarter
Apr 10
New
Apr 18
First Quarter

Hourly Weather History & Observations

Time (EAT) Temp. Heat Index Dew Point Humidity Pressure Visibility Wind Dir Wind Speed Gust Speed Precip Events Conditions
12:00 AM 82.4 °F 90.9 °F 77.0 °F 84% 29.86 in 6.2 mi WSW 6.9 mph - N/A   Mostly Cloudy
2:30 AM 80.6 °F 87.1 °F 77.0 °F 89% 29.83 in 6.2 mi WSW 5.8 mph - N/A   Scattered Clouds
3:00 AM 80 °F - 76 °F 86% 29.81 in 19 mi WSW 11.2 mph - -   Partly Cloudy
4:30 AM 80.6 °F 86.2 °F 75.2 °F 84% 29.83 in 6.2 mi WSW 5.8 mph - N/A   Partly Cloudy
5:30 AM 78.8 °F - 75.2 °F 89% 29.83 in 6.2 mi SW 6.9 mph - N/A   Partly Cloudy
7:00 AM 80.6 °F 86.2 °F 75.2 °F 84% 29.83 in 6.2 mi SW 6.9 mph - N/A   Partly Cloudy
8:00 AM 82.4 °F 89.5 °F 75.2 °F 79% 29.86 in 6.2 mi SW 12.7 mph - N/A   Scattered Clouds
9:00 AM 86 °F - 76 °F 65% 29.89 in 19 mi South 11.5 mph - -   Scattered Clouds
9:00 AM 86.0 °F 95.1 °F 75.2 °F 70% 29.89 in 6.2 mi South 11.5 mph - N/A   Partly Cloudy
10:00 AM 89.6 °F 99.8 °F 75.2 °F 62% 29.89 in 6.2 mi South 8.1 mph - N/A   Partly Cloudy
11:00 AM 86.0 °F 95.1 °F 75.2 °F 70% 29.86 in 6.2 mi South 8.1 mph - N/A   Mostly Cloudy
12:00 PM 91.4 °F 102.5 °F 75.2 °F 59% 29.86 in 6.2 mi SSE 11.5 mph - N/A   Mostly Cloudy
1:00 PM 89.6 °F 99.8 °F 75.2 °F 62% 29.83 in 6.2 mi SSE 10.4 mph - N/A   Mostly Cloudy
2:00 PM 89.6 °F 99.8 °F 75.2 °F 62% 29.80 in 6.2 mi SSE 12.7 mph - N/A   Mostly Cloudy
3:00 PM 90 °F - 74 °F 51% 29.78 in 19 mi South 10.4 mph - -   Scattered Clouds
3:00 PM 89.6 °F 98.2 °F 73.4 °F 59% 29.77 in 6.2 mi South 10.4 mph - N/A   Mostly Cloudy
4:00 PM 86.0 °F 96.9 °F 77.0 °F 74% 29.77 in 6.2 mi South 16.1 mph - N/A   Mostly Cloudy
5:00 PM 86.0 °F 96.9 °F 77.0 °F 74% 29.80 in 6.2 mi SSE 11.5 mph - N/A   Mostly Cloudy
6:00 PM 84.2 °F 92.3 °F 75.2 °F 74% 29.80 in 6.2 mi South 11.5 mph - N/A   Mostly Cloudy
8:00 PM 82.4 °F 89.5 °F 75.2 °F 79% 29.83 in 6.2 mi South 11.5 mph - N/A   Scattered Clouds
9:00 PM 82 °F - 75 °F 73% 29.88 in 19 mi SSW 11.5 mph - -   Partly Cloudy
9:00 PM 82.4 °F 89.5 °F 75.2 °F 79% 29.86 in 6.2 mi SSW 11.5 mph - N/A   Mostly Cloudy
10:00 PM 82.4 °F 89.5 °F 75.2 °F 79% 29.89 in 6.2 mi SSW 11.5 mph - N/A   Scattered Clouds
11:00 PM 80.6 °F 86.2 °F 75.2 °F 84% 29.89 in 6.2 mi SSW 5.8 mph - N/A   Scattered Clouds